Hourly Data Report for April 27, 2003

SHERBROOKE A
QUEBEC

45°26'00.000" N
71°41'00.000" W
241.40 m
7028124
71610
YSC

Download Data

Hourly Data (April 2003)
Hourly Data Report for April 27, 2003
TIME
LST
Temp Definition
°C
Dew Point Definition
°C
Rel Hum Definition
%
Precip. Amount Definition
mm

Wind Dir Definition
10's deg

Wind Spd Definition
km/h
Visibility Definition
km
Stn Press Definition
kPa
Hmdx Definition


Wind Chill Definition


Weather Definition


00:00 3.9 3.5 97   1 4 11.3 98.31     Rain
01:00 3.9 3.3 96   2 4 12.9 98.30     Rain
02:00 3.7 2.9 94   35 6 15.0 98.28     Rain
03:00 3.5 2.7 94   4 4 15.0 98.24      
04:00 3.4 2.5 94   7 6 15.0 98.29      
05:00 3.3 2.7 96   1 7 6.4 98.30     Rain
06:00 3.3 2.9 97   9 4 2.9 98.36     Drizzle
07:00 4.0 3.5 97   6 4 4.8 98.36     Drizzle, Fog
08:00 4.6 3.7 94     0 6.4 98.37     Drizzle, Fog
09:00 5.3 4.8 97     0 4.8 98.35     Drizzle, Fog
10:00 5.8 5.5 98   27 9 3.2 98.38     Drizzle, Fog
11:00 6.5 6.1 97   28 11 6.4 98.39     Fog
12:00 6.5 5.8 95   29 13 12.9 98.38     Cloudy
13:00 6.9 6.1 95   27 17 16.1 98.40     Cloudy
14:00 7.3 5.9 91   27 13 24.1 98.42     Cloudy
15:00 9.6 4.4 70   27 7 24.1 98.37     Mostly Cloudy
16:00 10.0 4.0 66   18 6 24.1 98.32     Mainly Clear
17:00 11.2 4.2 62   22 6 15.0 98.33      
18:00 10.1 4.1 66   13 7 15.0 98.28      
19:00 5.7 3.0 83   17 7 15.0 98.28      
20:00 5.5 2.2 79   23 6 15.0 98.31      
21:00 2.5 1.6 94     0 11.3 98.32      
22:00 2.6 2.0 96   3 7 9.7 98.32      
23:00 2.9 2.0 94     0 15.0 98.31      

Notes on Data Quality.

Legend

  • E = Estimated
  • M = Missing
  • NA = Not Available*
  • [empty] = Indicates an unobserved value
Date modified: